When you browse on this site, cookies collect data to enhance your experience and personalize the content and advertising you see.
Visit our Privacy Policy to learn more. By continuing to use the site, you agree to this use of cookies and data.
  • In Hungary
  • List of Countries
  • For 7 days
  • Water Temperature
  • Weather Map
  • News
  • Weather Widgets
  • user-avatar
    Login

    Hourly Weather Kunchukohabl

    Today, 22 October, Tuesday

    Time Temperature Precipitation Wind Pressure Humidity
    00:00 +13°C° 0 mm 3 mps 762 mmHg 70%
    01:00 +13°C° 0 mm 3 mps 762 mmHg 71%
    02:00 +12°C° 0 mm 3 mps 762 mmHg 73%
    03:00 +12°C° 0 mm 2 mps 763 mmHg 78%
    04:00 +12°C° 0 mm 2 mps 763 mmHg 80%
    05:00 +12°C° 0 mm 2 mps 763 mmHg 81%
    06:00 +10°C° 0 mm 2 mps 763 mmHg 83%
    07:00 +12°C° 0 mm 2 mps 763 mmHg 79%
    08:00 +13°C° 0 mm 2 mps 763 mmHg 75%
    09:00 +13°C° 0 mm 3 mps 763 mmHg 70%
    10:00 +16°C° 0 mm 3 mps 763 mmHg 64%
    11:00 +18°C° 0 mm 3 mps 763 mmHg 58%
    12:00 +20°C° 0 mm 2 mps 763 mmHg 51%
    13:00 +21°C° 0 mm 3 mps 763 mmHg 48%
    14:00 +22°C° 0 mm 3 mps 763 mmHg 46%
    15:00 +22°C° 0 mm 4 mps 762 mmHg 43%
    16:00 +21°C° 0 mm 4 mps 763 mmHg 46%
    17:00 +19°C° 0 mm 3 mps 763 mmHg 49%
    18:00 +18°C° 0 mm 3 mps 763 mmHg 51%
    19:00 +17°C° 0 mm 3 mps 763 mmHg 54%
    20:00 +16°C° 0 mm 3 mps 763 mmHg 56%
    21:00 +14°C° 0 mm 3 mps 763 mmHg 58%
    22:00 +14°C° 0 mm 3 mps 763 mmHg 59%
    23:00 +14°C° 0 mm 3 mps 762 mmHg 61%

    Tomorrow, 23 October, Wednesday

    Time Temperature Precipitation Wind Pressure Humidity
    00:00 +13°C° 0 mm 3 mps 762 mmHg 63%
    01:00 +14°C° 0 mm 2 mps 763 mmHg 64%
    02:00 +13°C° 0 mm 2 mps 763 mmHg 66%
    03:00 +13°C° 0 mm 1 mps 763 mmHg 68%
    04:00 +12°C° 0 mm 1 mps 763 mmHg 69%
    05:00 +12°C° 0 mm 1 mps 763 mmHg 69%
    06:00 +12°C° 0 mm 1 mps 763 mmHg 70%
    07:00 +13°C° 0 mm 1 mps 763 mmHg 66%
    08:00 +14°C° 0 mm 2 mps 763 mmHg 62%
    09:00 +15°C° 0 mm 2 mps 763 mmHg 58%
    10:00 +17°C° 0 mm 2 mps 763 mmHg 52%
    11:00 +19°C° 0 mm 2 mps 763 mmHg 45%
    12:00 +21°C° 0 mm 2 mps 763 mmHg 39%
    13:00 +22°C° 0 mm 3 mps 762 mmHg 37%
    14:00 +22°C° 0 mm 3 mps 762 mmHg 35%
    15:00 +24°C° 0 mm 3 mps 762 mmHg 32%
    16:00 +21°C° 0 mm 3 mps 762 mmHg 37%
    17:00 +20°C° 0 mm 3 mps 762 mmHg 41%
    18:00 +18°C° 0 mm 3 mps 762 mmHg 45%
    19:00 +17°C° 0 mm 3 mps 762 mmHg 48%
    20:00 +17°C° 0 mm 3 mps 762 mmHg 51%
    21:00 +16°C° 0 mm 3 mps 762 mmHg 53%
    22:00 +14°C° 0 mm 3 mps 762 mmHg 57%
    23:00 +14°C° 0 mm 3 mps 762 mmHg 60%

    Day after tomorrow, 24 October, Thursday

    Time Temperature Precipitation Wind Pressure Humidity
    00:00 +15°C° 0 mm 2 mps 762 mmHg 64%
    01:00 +14°C° 0 mm 2 mps 762 mmHg 66%
    02:00 +14°C° 0 mm 2 mps 762 mmHg 68%
    03:00 +13°C° 0 mm 2 mps 762 mmHg 70%
    04:00 +13°C° 0 mm 2 mps 762 mmHg 72%
    05:00 +12°C° 0 mm 1 mps 762 mmHg 74%
    06:00 +12°C° 0 mm 1 mps 762 mmHg 76%
    07:00 +13°C° 0 mm 1 mps 762 mmHg 71%
    08:00 +14°C° 0 mm 1 mps 762 mmHg 67%
    09:00 +15°C° 0 mm 1 mps 762 mmHg 62%
    10:00 +18°C° 0 mm 1 mps 762 mmHg 56%
    11:00 +20°C° 0 mm 1 mps 762 mmHg 49%
    12:00 +21°C° 0 mm 2 mps 762 mmHg 43%
    13:00 +21°C° 0 mm 2 mps 761 mmHg 40%
    14:00 +23°C° 0 mm 2 mps 761 mmHg 37%
    15:00 +24°C° 0 mm 1 mps 761 mmHg 35%
    16:00 +22°C° 0 mm 1 mps 760 mmHg 39%
    17:00 +20°C° 0 mm 1 mps 760 mmHg 43%
    18:00 +19°C° 0 mm 1 mps 760 mmHg 47%
    19:00 +18°C° 0 mm 1 mps 760 mmHg 49%
    20:00 +18°C° 0 mm 1 mps 760 mmHg 51%
    21:00 +16°C° 0 mm 1 mps 760 mmHg 53%
    22:00 +16°C° 0 mm 1 mps 760 mmHg 56%
    23:00 +15°C° 0 mm 1 mps 760 mmHg 59%

    25 October, Friday

    Time Temperature Precipitation Wind Pressure Humidity
    00:00 +14°C° 0 mm 1 mps 760 mmHg 62%
    01:00 +14°C° 0 mm 1 mps 760 mmHg 63%
    02:00 +14°C° 0 mm 1 mps 760 mmHg 65%
    03:00 +12°C° 0 mm 0 mps 760 mmHg 67%
    04:00 +13°C° 0 mm 1 mps 760 mmHg 68%
    05:00 +13°C° 0 mm 1 mps 760 mmHg 70%
    06:00 +12°C° 0 mm 1 mps 760 mmHg 71%
    07:00 +14°C° 0 mm 1 mps 760 mmHg 67%
    08:00 +15°C° 0 mm 1 mps 760 mmHg 63%
    09:00 +16°C° 0 mm 1 mps 760 mmHg 59%
    10:00 +18°C° 0 mm 1 mps 760 mmHg 53%
    11:00 +20°C° 0 mm 1 mps 760 mmHg 48%
    12:00 +22°C° 0 mm 1 mps 760 mmHg 43%
    13:00 +22°C° 0 mm 1 mps 759 mmHg 40%
    14:00 +23°C° 0 mm 1 mps 759 mmHg 38%
    15:00 +23°C° 0 mm 1 mps 759 mmHg 36%
    16:00 +22°C° 0 mm 1 mps 759 mmHg 40%
    17:00 +20°C° 0 mm 1 mps 759 mmHg 44%
    18:00 +19°C° 0 mm 1 mps 759 mmHg 48%
    19:00 +18°C° 0 mm 1 mps 759 mmHg 50%
    20:00 +16°C° 0 mm 1 mps 759 mmHg 52%
    21:00 +16°C° 0 mm 1 mps 760 mmHg 55%
    22:00 +15°C° 0 mm 1 mps 759 mmHg 57%
    23:00 +15°C° 0 mm 1 mps 759 mmHg 59%

    26 October, Saturday

    Time Temperature Precipitation Wind Pressure Humidity
    00:00 +13°C° 0 mm 0 mps 759 mmHg 61%
    01:00 +13°C° 0 mm 0 mps 760 mmHg 62%
    02:00 +12°C° 0 mm 0 mps 760 mmHg 64%
    03:00 +12°C° 0 mm 0 mps 760 mmHg 66%
    04:00 +13°C° 0 mm 1 mps 760 mmHg 67%
    05:00 +12°C° 0 mm 1 mps 760 mmHg 68%
    06:00 +12°C° 0 mm 1 mps 760 mmHg 69%
    07:00 +13°C° 0 mm 1 mps 760 mmHg 65%
    08:00 +14°C° 0 mm 1 mps 760 mmHg 61%
    09:00 +16°C° 0 mm 1 mps 760 mmHg 57%
    10:00 +18°C° 0 mm 1 mps 760 mmHg 53%
    11:00 +20°C° 0 mm 1 mps 760 mmHg 48%
    12:00 +21°C° 0 mm 1 mps 760 mmHg 43%
    13:00 +22°C° 0 mm 1 mps 760 mmHg 42%
    14:00 +22°C° 0 mm 1 mps 760 mmHg 40%
    15:00 +21°C° 0 mm 2 mps 759 mmHg 39%
    16:00 +21°C° 0 mm 1 mps 759 mmHg 44%
    17:00 +19°C° 0 mm 1 mps 759 mmHg 48%
    18:00 +16°C° 0 mm 0 mps 759 mmHg 53%
    19:00 +18°C° 0 mm 1 mps 759 mmHg 54%
    20:00 +16°C° 0 mm 1 mps 759 mmHg 55%
    21:00 +16°C° 0 mm 1 mps 759 mmHg 57%
    22:00 +15°C° 0 mm 1 mps 759 mmHg 59%
    23:00 +15°C° 0 mm 1 mps 759 mmHg 61%

    27 October, Sunday

    Time Temperature Precipitation Wind Pressure Humidity
    00:00 +14°C° 0 mm 2 mps 759 mmHg 63%
    01:00 +14°C° 0 mm 1 mps 759 mmHg 66%
    02:00 +14°C° 0 mm 1 mps 759 mmHg 68%
    03:00 +13°C° 0 mm 1 mps 759 mmHg 71%
    04:00 +13°C° 0 mm 1 mps 759 mmHg 72%
    05:00 +12°C° 0 mm 1 mps 759 mmHg 74%
    06:00 +12°C° 0 mm 1 mps 759 mmHg 76%
    07:00 +12°C° 0 mm 0 mps 759 mmHg 72%
    08:00 +13°C° 0 mm 0 mps 759 mmHg 68%
    09:00 +14°C° 0 mm 0 mps 759 mmHg 63%
    10:00 +16°C° 0 mm 0 mps 759 mmHg 58%
    11:00 +18°C° 0 mm 0 mps 759 mmHg 52%
    12:00 +21°C° 0 mm 1 mps 759 mmHg 46%
    13:00 +22°C° 0 mm 1 mps 759 mmHg 45%
    14:00 +22°C° 0 mm 1 mps 758 mmHg 44%
    15:00 +22°C° 0 mm 1 mps 758 mmHg 43%
    16:00 +21°C° 0 mm 1 mps 758 mmHg 47%
    17:00 +20°C° 0 mm 1 mps 758 mmHg 52%
    18:00 +18°C° 0 mm 1 mps 758 mmHg 56%
    19:00 +18°C° 0 mm 1 mps 758 mmHg 57%
    20:00 +15°C° 0 mm 0 mps 759 mmHg 59%
    21:00 +15°C° 0 mm 0 mps 759 mmHg 61%
    22:00 +14°C° 0 mm 0 mps 759 mmHg 63%
    23:00 +15°C° 0 mm 1 mps 759 mmHg 65%

    28 October, Monday

    Time Temperature Precipitation Wind Pressure Humidity
    00:00 +14°C° 0 mm 1 mps 759 mmHg 67%
    01:00 +14°C° 0 mm 1 mps 759 mmHg 69%
    02:00 +14°C° 0 mm 1 mps 758 mmHg 71%
    03:00 +13°C° 0 mm 1 mps 758 mmHg 72%
    04:00 +13°C° 0 mm 1 mps 758 mmHg 74%
    05:00 +13°C° 0 mm 1 mps 759 mmHg 76%
    06:00 +12°C° 0 mm 1 mps 759 mmHg 77%
    07:00 +14°C° 0 mm 1 mps 759 mmHg 74%
    08:00 +15°C° 0 mm 1 mps 759 mmHg 70%
    09:00 +16°C° 0 mm 1 mps 759 mmHg 66%
    10:00 +18°C° 0 mm 2 mps 759 mmHg 62%
    11:00 +19°C° 0 mm 2 mps 759 mmHg 57%
    12:00 +21°C° 0 mm 3 mps 759 mmHg 53%
    13:00 +21°C° 0 mm 3 mps 759 mmHg 51%
    14:00 +22°C° 0 mm 3 mps 759 mmHg 50%
    15:00 +22°C° 0 mm 3 mps 758 mmHg 48%
    16:00 +20°C° 0 mm 3 mps 758 mmHg 54%
    17:00 +19°C° 0 mm 2 mps 758 mmHg 60%
    18:00 +18°C° 0 mm 2 mps 759 mmHg 65%
    19:00 +17°C° 0 mm 2 mps 759 mmHg 70%
    20:00 +16°C° 0 mm 2 mps 759 mmHg 74%
    21:00 +15°C° 0 mm 2 mps 759 mmHg 78%
    22:00 +15°C° 0 mm 2 mps 759 mmHg 80%
    23:00 +14°C° 0 mm 2 mps 759 mmHg 82%
    Show more